[[{"header":{"parameterUnit":"m.s-1","parameterCategory":1,"la1":30.2991,"la2":30.254,"lo1":-89.0895,"lo2":-89.0444,"dy":0.0017,"dx":0.0017,"nx":28,"ny":28,"refTime":"2025-06-20T03:00:00:Z","depth":0,"parameterNumber":2,"parameterNumberName":"U-component_of_WINDS"},"data":[0,0,0,0,0,0,0,0,0,0,0,0,0,0,0,0,0,0,0,0,0,0,0,0,0,0,0,0,0,0,0,0,0,0,0,0,0,0,0,0,0,0,0,0,0,0,0,0,0,0,0,0,0,0,0,0,0,0,-3.8752,-3.8752,0,-3.8811,-3.8811,-3.8812,-3.882,-3.8819,-3.8819,-3.8818,-3.8872,-3.8873,-3.8875,0,0,0,0,0,0,0,0,0,0,0,0,0,-3.8638,-3.864,-3.8752,-3.8752,-3.8753,-3.8811,-3.8812,-3.8812,-3.882,-3.8819,-3.8819,-3.8818,-3.8871,-3.8873,-3.8875,0,0,0,0,0,0,0,0,0,0,0,0,0,-3.8691,-3.8641,-3.8752,-3.8764,-3.8766,-3.8811,-3.8812,-3.8813,-3.882,-3.8819,-3.8819,-3.8818,-3.887,-3.8873,-3.8876,-3.891,0,0,-3.8885,-3.8886,0,0,0,0,0,0,0,0,-3.8688,-3.8695,-3.8762,-3.8763,-3.8765,-3.8807,-3.8791,-3.8845,-3.882,-3.8799,-3.8818,-3.8817,-3.885,-3.8855,-3.8867,-3.8912,-3.8914,-3.8885,-3.8887,-3.8888,-3.8889,0,0,0,0,0,0,0,-3.8685,-3.8693,-3.8775,-3.8762,-3.8765,-3.8764,-3.8771,-3.8801,-3.8828,-3.8801,-3.8802,-3.8809,-3.8851,-3.8865,-3.8869,-3.8915,-3.8885,-3.8887,-3.8889,-3.889,-3.899,-3.899,0,0,0,0,0,0,-3.868,-3.869,-3.8773,-3.8777,-3.8724,-3.8767,-3.8775,-3.8795,-3.8828,-3.8833,-3.881,-3.8809,-3.886,-3.8865,-3.8871,-3.8912,-3.8888,-3.8891,-3.8892,-3.8989,-3.899,-3.8991,0,0,0,0,0,0,-3.8677,-3.8687,-3.8771,-3.8734,-3.8744,-3.877,-3.8792,-3.8796,-3.881,-3.8835,-3.8839,-3.8819,-3.886,-3.8867,-3.89,-3.8914,-3.8892,-3.8894,-3.8988,-3.8989,-3.899,-3.8995,0,0,0,0,0,0,-3.8674,-3.8686,-3.8701,-3.8734,-3.8746,-3.8801,-3.8793,-3.8798,-3.8816,-3.8815,-3.8845,-3.8848,-3.886,-3.8896,-3.8903,-3.8917,-3.8897,-3.8986,-3.8988,-3.899,-3.8993,-3.8996,-3.8998,0,0,0,0,0,-3.867,-3.8698,-3.8702,-3.8712,-3.8766,-3.8802,-3.8809,-3.8823,-3.8817,-3.883,-3.8847,-3.8848,-3.8911,-3.8899,-3.8907,-3.8923,-3.8986,-3.8988,-3.899,-3.8992,-3.8995,-3.8998,0,0,0,0,0,0,-3.8663,-3.8703,-3.8707,-3.8748,-3.8772,-3.8803,-3.8821,-3.8826,-3.8851,-3.8849,-3.8864,-3.887,-3.8903,-3.8916,-3.8902,-3.8957,-3.8948,-3.8951,-3.8947,-3.895,-3.8952,-3.8948,-3.8899,0,0,0,0,0,-3.8667,-3.8696,-3.8728,-3.876,-3.8773,-3.8795,-3.8811,-3.8821,-3.8845,-3.8855,-3.8873,-3.8895,-3.892,-3.8936,-3.896,-3.8996,-3.9001,-3.901,-3.9012,-3.9014,-3.9017,-3.9035,-3.9039,-3.8997,-3.8997,-3.8997,0,0,-3.8674,-3.8699,-3.8716,-3.876,-3.878,-3.8807,-3.8803,-3.8832,-3.8852,-3.8858,-3.8892,-3.8906,-3.8931,-3.8966,-3.8982,-3.8978,-3.903,-3.9017,-3.9018,-3.902,-3.9038,-3.9042,-3.9045,-3.8999,-3.8999,-3.8998,0,0,-3.8701,-3.8724,-3.8753,-3.8774,-3.8805,-3.882,-3.8827,-3.8858,-3.8869,-3.8903,-3.8908,-3.893,-3.8973,-3.8991,-3.9005,-3.9039,-3.9041,-3.9047,-3.9059,-3.9077,-3.908,-3.9083,-3.9093,-3.9097,-3.905,-3.905,-3.905,0,-3.8705,-3.8749,-3.8767,-3.8796,-3.8814,-3.8824,-3.8853,-3.8871,-3.8907,-3.8918,-3.8914,-3.8968,-3.8986,-3.9024,-3.9033,-3.9045,-3.9051,-3.9043,-3.9078,-3.9082,-3.9084,-3.9095,-3.9099,-3.905,-3.905,-3.905,-3.905,0,-3.8751,-3.8781,-3.8801,-3.8839,-3.8859,-3.8888,-3.8908,-3.8926,-3.8933,-3.8948,-3.8982,-3.9004,-3.9032,-3.9042,-3.9049,-3.9081,-3.9078,-3.9076,-3.9067,-3.9089,-3.9098,-3.9103,-3.9051,-3.9051,-3.905,-3.905,0,0,-3.8774,-3.8823,-3.8829,-3.8846,-3.8882,-3.8904,-3.8932,-3.8963,-3.8977,-3.9002,-3.9025,-3.9061,-3.906,-3.9076,-3.9085,-3.9101,-3.9125,-3.9097,-3.9098,-3.91,-3.916,-3.916,-3.9165,-3.9127,-3.9128,-3.9128,-3.9157,0,-3.8804,-3.8857,-3.8875,-3.8918,-3.8945,-3.8955,-3.8979,-3.9002,-3.9017,-3.904,-3.9054,-3.908,-3.9077,-3.9087,-3.9103,-3.9119,-3.9137,-3.9117,-3.9145,-3.9146,-3.9137,-3.917,-3.917,-3.9197,-3.9161,-3.9162,-3.9163,0,-3.8845,-3.8873,-3.892,-3.8952,-3.8964,-3.8986,-3.9015,-3.9038,-3.9064,-3.9073,-3.9092,-3.9099,-3.9127,-3.9118,-3.9154,-3.9141,-3.9153,-3.9162,-3.9164,-3.9166,-3.9155,-3.9171,-3.9206,-3.9209,-3.9169,-3.9169,-3.9168,0,-3.8855,-3.8905,-3.8939,-3.8954,-3.8992,-3.9007,-3.9023,-3.9049,-3.9066,-3.909,-3.9101,-3.9128,-3.9142,-3.9161,-3.9175,-3.9168,-3.921,-3.9203,-3.9217,-3.9216,-3.9224,-3.9223,-3.9259,-3.9235,-3.9235,-3.9234,-3.9234,0,-3.8886,-3.8913,-3.8944,-3.8965,-3.8996,-3.9015,-3.9044,-3.9061,-3.9083,-3.9105,-3.9115,-3.9135,-3.9153,-3.9175,-3.9186,-3.9214,-3.9221,-3.9227,-3.9229,-3.9226,-3.9225,-3.9233,-3.9231,-3.9236,-3.9235,-3.9235,-3.9235,0,-3.8901,-3.8924,-3.8962,-3.8996,-3.9005,-3.9026,-3.9054,-3.9074,-3.9089,-3.9117,-3.9125,-3.9148,-3.9174,-3.9191,-3.9224,-3.9231,-3.9261,-3.9263,-3.9253,-3.9254,-3.9267,-3.9265,-3.9309,-3.9315,-3.9287,-3.9287,-3.9288,0,-3.8919,-3.8941,-3.8978,-3.8996,-3.9013,-3.904,-3.9058,-3.9077,-3.9095,-3.9126,-3.9141,-3.9169,-3.9192,-3.9234,-3.9252,-3.9277,-3.9279,-3.9292,-3.9282,-3.9277,-3.9277,-3.9275,-3.9277,-3.9293,-3.9294,-3.9294,-3.9294,0,-3.8946,-3.8957,-3.8984,-3.9016,-3.9038,-3.9063,-3.9087,-3.91,-3.9123,-3.9142,-3.9171,-3.9189,-3.9224,-3.925,-3.9277,-3.9291,-3.9295,-3.9297,-3.9302,-3.9297,-3.929,-3.9293,-3.9256,-3.9296,-3.9296,-3.9295,-3.9295,-3.9295,-3.8963,-3.8983,-3.9012,-3.9042,-3.9064,-3.9086,-3.9106,-3.9125,-3.915,-3.9182,-3.9191,-3.922,-3.9244,-3.9281,-3.9296,-3.9318,-3.9315,-3.9322,-3.9323,-3.9324,-3.9324,-3.9288,-3.9323,-3.9323,-3.9323,-3.9322,-3.9322,0,-3.899,-3.901,-3.9038,-3.9073,-3.9096,-3.9102,-3.9129,-3.9147,-3.9174,-3.9197,-3.9221,-3.9253,-3.9279,-3.93,-3.9326,-3.9339,-3.9342,-3.9345,-3.9343,-3.9346,-3.9325,-3.9318,-3.9342,-3.9342,-3.9342,-3.9342,-3.9342,-3.9342,-3.9006,-3.904,-3.9054,-3.9098,-3.9117,-3.9148,-3.9163,-3.9183,-3.9202,-3.9239,-3.9262,-3.9276,-3.9298,-3.9326,-3.9349,-3.9354,-3.9363,-3.9365,-3.9371,-3.935,-3.9348,-3.9346,-3.9339,-3.9367,-3.9368,-3.939,-3.939,-3.939]},{"header":{"parameterUnit":"m.s-1","parameterCategory":1,"la1":30.2991,"la2":30.254,"lo1":-89.0895,"lo2":-89.0444,"dy":0.0017,"dx":0.0017,"nx":28,"ny":28,"refTime":"2025-06-20T03:00:00:Z","depth":0,"parameterNumber":3,"parameterNumberName":"V-component_of_WINDS"},"data":[0,0,0,0,0,0,0,0,0,0,0,0,0,0,0,0,0,0,0,0,0,0,0,0,0,0,0,0,0,0,0,0,0,0,0,0,0,0,0,0,0,0,0,0,0,0,0,0,0,0,0,0,0,0,0,0,0,0,-0.8902,-0.8903,0,-0.8968,-0.8969,-0.897,-0.8973,-0.8972,-0.8971,-0.897,-0.904,-0.9042,-0.9045,0,0,0,0,0,0,0,0,0,0,0,0,0,-0.878,-0.8782,-0.8902,-0.8903,-0.8904,-0.8968,-0.8969,-0.897,-0.8973,-0.8972,-0.8971,-0.897,-0.9039,-0.9042,-0.9045,0,0,0,0,0,0,0,0,0,0,0,0,0,-0.8838,-0.8783,-0.8902,-0.8913,-0.8914,-0.8968,-0.8969,-0.897,-0.8973,-0.8972,-0.8971,-0.8969,-0.9038,-0.9042,-0.9045,-0.9093,0,0,-0.9057,-0.9059,0,0,0,0,0,0,0,0,-0.8835,-0.8843,-0.891,-0.8912,-0.8914,-0.8961,-0.8951,-0.9011,-0.8973,-0.8951,-0.897,-0.8969,-0.9014,-0.902,-0.9035,-0.9096,-0.9099,-0.9058,-0.906,-0.9062,-0.9063,0,0,0,0,0,0,0,-0.8831,-0.884,-0.8928,-0.8911,-0.8914,-0.8915,-0.8922,-0.8963,-0.8989,-0.8953,-0.8953,-0.8961,-0.9015,-0.9032,-0.9037,-0.91,-0.9057,-0.9061,-0.9063,-0.9065,-0.9204,-0.9205,0,0,0,0,0,0,-0.8824,-0.8836,-0.8926,-0.893,-0.8871,-0.8918,-0.8926,-0.8947,-0.8988,-0.8993,-0.8962,-0.8961,-0.9026,-0.9032,-0.9039,-0.9098,-0.9062,-0.9065,-0.9067,-0.9203,-0.9204,-0.9206,0,0,0,0,0,0,-0.8822,-0.8832,-0.8923,-0.8883,-0.8895,-0.8921,-0.8945,-0.8949,-0.8965,-0.8995,-0.9,-0.8973,-0.9025,-0.9034,-0.908,-0.91,-0.9067,-0.907,-0.9201,-0.9203,-0.9205,-0.9214,0,0,0,0,0,0,-0.8818,-0.8831,-0.8849,-0.8884,-0.8897,-0.8962,-0.8946,-0.8951,-0.8972,-0.8971,-0.9007,-0.9012,-0.9025,-0.9074,-0.9083,-0.9105,-0.9073,-0.9199,-0.9202,-0.9205,-0.9212,-0.9217,-0.922,0,0,0,0,0,-0.8814,-0.8849,-0.885,-0.8861,-0.892,-0.8963,-0.8971,-0.8984,-0.8973,-0.8992,-0.9011,-0.9011,-0.9097,-0.9078,-0.9089,-0.9112,-0.9198,-0.9201,-0.9204,-0.9211,-0.9216,-0.922,0,0,0,0,0,0,-0.8817,-0.8854,-0.8855,-0.8903,-0.893,-0.8963,-0.8987,-0.8989,-0.902,-0.9018,-0.9034,-0.9042,-0.9087,-0.9105,-0.9084,-0.9161,-0.9146,-0.9152,-0.9147,-0.9152,-0.9156,-0.9151,-0.9077,0,0,0,0,0,-0.8823,-0.8854,-0.8885,-0.8924,-0.8938,-0.896,-0.8979,-0.8987,-0.9016,-0.9028,-0.905,-0.9078,-0.9112,-0.9133,-0.9166,-0.9216,-0.9224,-0.9237,-0.9241,-0.9244,-0.9248,-0.9276,-0.9282,-0.9216,-0.9216,-0.9216,0,0,-0.8836,-0.886,-0.8879,-0.8926,-0.8947,-0.898,-0.897,-0.9004,-0.9029,-0.9033,-0.9077,-0.9095,-0.9128,-0.9176,-0.9198,-0.9191,-0.9268,-0.9248,-0.925,-0.9252,-0.9279,-0.9286,-0.9291,-0.9218,-0.9218,-0.9217,0,0,-0.8876,-0.8897,-0.8932,-0.8954,-0.8987,-0.9002,-0.9011,-0.9044,-0.9056,-0.9101,-0.9104,-0.9135,-0.9192,-0.9215,-0.9234,-0.9284,-0.9285,-0.9294,-0.9314,-0.9341,-0.9346,-0.9351,-0.9368,-0.9374,-0.9299,-0.9299,-0.9299,0,-0.8888,-0.8936,-0.895,-0.8985,-0.9005,-0.9011,-0.9046,-0.9068,-0.911,-0.9124,-0.9116,-0.9188,-0.9211,-0.9264,-0.9276,-0.9292,-0.9303,-0.9289,-0.9344,-0.9349,-0.9354,-0.937,-0.9377,-0.93,-0.9299,-0.9299,-0.9299,0,-0.8949,-0.8983,-0.9007,-0.9047,-0.9071,-0.9106,-0.9125,-0.9148,-0.9155,-0.917,-0.9216,-0.9244,-0.9282,-0.9295,-0.9302,-0.935,-0.9345,-0.9341,-0.9326,-0.936,-0.9376,-0.9383,-0.9301,-0.93,-0.93,-0.93,0,0,-0.8991,-0.9039,-0.9047,-0.9065,-0.9103,-0.913,-0.9166,-0.9202,-0.9221,-0.9251,-0.9281,-0.933,-0.9326,-0.9348,-0.9358,-0.9382,-0.942,-0.9375,-0.9376,-0.9382,-0.9474,-0.9476,-0.9483,-0.9421,-0.9423,-0.9424,-0.9471,0,-0.9034,-0.9097,-0.9111,-0.9165,-0.9196,-0.9203,-0.9234,-0.9261,-0.9277,-0.9307,-0.9326,-0.936,-0.9353,-0.9366,-0.939,-0.941,-0.9438,-0.9407,-0.945,-0.9451,-0.944,-0.9492,-0.9494,-0.9537,-0.9477,-0.9478,-0.9479,0,-0.9092,-0.9122,-0.9179,-0.9213,-0.9227,-0.9255,-0.929,-0.9318,-0.9349,-0.936,-0.9385,-0.9392,-0.9431,-0.9415,-0.9469,-0.9447,-0.9466,-0.9479,-0.9481,-0.9484,-0.9466,-0.9495,-0.9551,-0.9557,-0.9489,-0.9489,-0.9488,0,-0.9116,-0.9171,-0.9212,-0.9228,-0.9269,-0.9288,-0.9306,-0.9336,-0.9357,-0.9389,-0.9403,-0.9439,-0.9458,-0.9486,-0.9503,-0.9491,-0.9555,-0.9541,-0.9565,-0.9564,-0.9576,-0.9575,-0.9635,-0.9591,-0.9591,-0.959,-0.959,0,-0.9162,-0.9196,-0.9223,-0.9249,-0.9288,-0.9305,-0.9343,-0.9362,-0.9388,-0.9418,-0.9427,-0.9454,-0.9476,-0.9507,-0.9522,-0.9563,-0.9572,-0.9582,-0.9585,-0.958,-0.9579,-0.9592,-0.9589,-0.9592,-0.9592,-0.9592,-0.9591,0,-0.9194,-0.9213,-0.9259,-0.9294,-0.9303,-0.9331,-0.9361,-0.9386,-0.9403,-0.9441,-0.9451,-0.9477,-0.9514,-0.9535,-0.9582,-0.9592,-0.9638,-0.964,-0.9627,-0.9628,-0.965,-0.9647,-0.9719,-0.9729,-0.9679,-0.9679,-0.968,0,-0.9221,-0.9247,-0.9285,-0.9305,-0.9323,-0.9356,-0.9378,-0.9396,-0.9419,-0.9457,-0.9478,-0.9515,-0.9546,-0.9605,-0.9629,-0.9665,-0.9668,-0.9691,-0.9673,-0.9668,-0.9667,-0.9665,-0.9667,-0.9693,-0.9693,-0.9694,-0.9694,0,-0.9267,-0.9275,-0.9306,-0.9341,-0.9367,-0.9395,-0.9423,-0.9439,-0.9463,-0.9488,-0.9526,-0.9549,-0.9597,-0.9635,-0.9673,-0.9692,-0.9697,-0.97,-0.9707,-0.9701,-0.9692,-0.9697,-0.9634,-0.9697,-0.9697,-0.9697,-0.9697,-0.9697,-0.9296,-0.932,-0.9351,-0.9385,-0.9408,-0.9435,-0.946,-0.948,-0.9512,-0.9552,-0.9561,-0.9601,-0.9633,-0.9684,-0.9705,-0.9737,-0.9733,-0.9743,-0.9746,-0.9748,-0.9748,-0.9688,-0.9744,-0.9744,-0.9744,-0.9744,-0.9744,0,-0.9342,-0.9362,-0.9393,-0.9432,-0.946,-0.9462,-0.9494,-0.9517,-0.9551,-0.958,-0.961,-0.9654,-0.9691,-0.9718,-0.9756,-0.9776,-0.9779,-0.9785,-0.9783,-0.9788,-0.975,-0.974,-0.9782,-0.9782,-0.9782,-0.9782,-0.9782,-0.9782,-0.9368,-0.9409,-0.9421,-0.9474,-0.9495,-0.9533,-0.9551,-0.9575,-0.9598,-0.9647,-0.9677,-0.9695,-0.9723,-0.9763,-0.9797,-0.9805,-0.9818,-0.9823,-0.983,-0.9794,-0.979,-0.9786,-0.9777,-0.9826,-0.9826,-0.9865,-0.9866,-0.9866]}]]